(164725) = 1998 QF98

Discovered at Socorro on 1998-08-28 by LINEAR.

Orbit

Orbit type: Mars-crosser

Note: WebGL enabled browser required.

epoch2023-02-25.0
epoch JD2460000.5
perihelion date2020-08-25.53273
perihelion JD2459087.03273
argument of perihelion (°)196.91862
ascending node (°)161.39357
inclination (°)11.81109
eccentricity0.3874077
perihelion distance (AU)1.6442630
Tisserand w.r.t. Jupiter3.2
ΔV w.r.t. Earth (km/sec)8.8
semimajor axis (AU)2.6841067
mean anomaly (°)204.73740
mean daily motion (°/day)0.22413220
aphelion distance (AU)3.724
period (years)4.4
P-vector [x]0.99760026
P-vector [y]-0.00868653
P-vector [z]-0.06868962
Q-vector [x]0.02299059
Q-vector [y]0.97736631
Q-vector [z]0.21030106
absolute magnitude15.71
phase slope0.15
uncertainty0
referenceMPO 745323
observations used1056
oppositions16
arc length (days)9036
first opposition used1998
last opposition used2023
residual rms (arc-secs)0.72
perturbers coarse indicatorM-v
perturbers precise indicator003Ek
first observation date used1998-08-02.0
last observation date used2023-04-29.0
computer nameMPCLINUX
JD of orbit computation2456789.340440
perihelion JD uncertainty (days)4.2992E-05
argument of perihelion uncertainty (°)2.2401E-05
ascending node uncertainty (°)2.0369E-05
inclination uncertainty (°)7.3037E-06
eccentricity uncertainty 5.5844E-08
perihelion distance uncertainty (AU)1.5268E-07
Minimum Orbit Intersection Distances (in AU)
for orbit epoch: 2460000.5, reference: E2023-HO8
Mercury1.27677
Venus0.91758
Earth0.64178
Mars0.2593
Jupiter1.72211
Saturn5.74662
Uranus14.7318
Neptune26.9467

Observations

1077 total observations over interval: 1998 08 02.40050 – 2023 04 29.196439
These data are available for download (format description).

Date (UT) J2000 RA J2000 Dec Magn Location Ref
1998 08 02.40050 00 18 34.01 +04 44 02.6 17.4 R 699 – Lowell Observatory-LONEOS MPS 2264
1998 08 02.42034 00 18 35.57 +04 43 58.5   699 – Lowell Observatory-LONEOS MPS 2264
1998 08 02.44019 00 18 37.22 +04 43 54.4   699 – Lowell Observatory-LONEOS MPS 2264
1998 08 28.26625 00 46 29.64 +00 54 43.9 17.5   704 – Lincoln Laboratory ETS, New Mexico MPS 2098
1998 08 28.27544 00 46 30.00 +00 54 36.4   704 – Lincoln Laboratory ETS, New Mexico MPS 2098
1998 08 28.28470 00 46 30.27 +00 54 27.3   704 – Lincoln Laboratory ETS, New Mexico MPS 2098
1998 08 28.29404 00 46 30.66 +00 54 20.3   704 – Lincoln Laboratory ETS, New Mexico MPS 2098
1998 08 28.30318 00 46 30.99 +00 54 12.9 17.4   704 – Lincoln Laboratory ETS, New Mexico MPS 2098
1998 08 31.27311 00 48 29.83 +00 10 08.0 17.0   704 – Lincoln Laboratory ETS, New Mexico MPS 2098
1998 08 31.28227 00 48 30.18 +00 09 59.2   704 – Lincoln Laboratory ETS, New Mexico MPS 2098
1998 08 31.29161 00 48 30.51 +00 09 50.4 17.3   704 – Lincoln Laboratory ETS, New Mexico MPS 2098
1998 08 31.30111 00 48 30.84 +00 09 41.4 17.3   704 – Lincoln Laboratory ETS, New Mexico MPS 2098
1998 08 31.31032 00 48 31.11 +00 09 31.7 17.4   704 – Lincoln Laboratory ETS, New Mexico MPS 2098
1998 09 14.22418 00 54 06.524 -03 52 10.29 15.25 J I02 – Cerro Tololo Observatory, La Serena--2MASS MPS 79507
1998 09 14.36888 00 54 07.87 -03 55 08.2 18.0   704 – Lincoln Laboratory ETS, New Mexico MPS 2264
1998 09 14.39101 00 54 08.02 -03 55 33.1   704 – Lincoln Laboratory ETS, New Mexico MPS 2264
1998 09 14.41317 00 54 08.16 -03 55 57.6   704 – Lincoln Laboratory ETS, New Mexico MPS 2264
1998 09 15.19723 00 54 17.12 -04 10 44.4 16.0 R 758 – BCC Observatory, Cocoa MPS 2264
1998 09 15.19964 00 54 17.11 -04 10 47.1 16.3 R 758 – BCC Observatory, Cocoa MPS 2264
1998 09 15.20262 00 54 17.14 -04 10 50.8 16.0 R 758 – BCC Observatory, Cocoa MPS 2264
1998 09 15.20509 00 54 17.15 -04 10 53.6 16.2 R 758 – BCC Observatory, Cocoa MPS 2264
1998 09 15.77030 00 54 21.62 -04 21 21.9 16.1 R 426 – Woomera MPS 2264
1998 09 15.77385 00 54 21.64 -04 21 26.1 16.1 R 426 – Woomera MPS 2264
1998 09 15.77743 00 54 21.65 -04 21 30.2 16.2 R 426 – Woomera MPS 2264
1998 09 15.78067 00 54 21.67 -04 21 33.7 16.1 R 426 – Woomera MPS 2264
1998 09 15.90799 00 54 23.76 -04 24 15.4   108 – Montelupo MPS 2264
1998 09 15.91270 00 54 23.83 -04 24 20.1   108 – Montelupo MPS 2264
1998 09 15.92112 00 54 23.86 -04 24 28.6 16.3 V 108 – Montelupo MPS 2264
1998 09 15.92220 00 54 23.79 -04 24 31.2   587 – Sormano MPS 2264
1998 09 15.92863 00 54 23.82 -04 24 38.5 16.4 R 587 – Sormano MPS 2264
1998 09 15.93336 00 54 23.84 -04 24 43.9   587 – Sormano MPS 2264
1998 09 16.51988 00 54 28.80 -04 35 34.9 16.7 R 422 – Loomberah MPS 2264
1998 09 16.52407 00 54 28.81 -04 35 39.8 16.8 R 422 – Loomberah MPS 2264
1998 09 16.52471 00 54 28.81 -04 35 40.3 16.8 R 422 – Loomberah MPS 2265
1998 09 16.61432 00 54 29.29 -04 37 23.2 16.0 R 426 – Woomera MPS 2265
1998 09 16.61883 00 54 29.31 -04 37 28.3 16.1 R 426 – Woomera MPS 2265
1998 09 16.62324 00 54 29.32 -04 37 33.3 16.2 R 426 – Woomera MPS 2265
1998 09 16.66071 00 54 29.41 -04 38 30.4 16.5 V 900 – Moriyama MPS 2265
1998 09 16.66836 00 54 29.41 -04 38 39.8   900 – Moriyama MPS 2265
1998 09 16.95583 00 54 31.69 -04 44 09.5   557 – Ondrejov MPS 2265
1998 09 16.95670 00 54 31.80 -04 44 07.8 17.2 V 910 – Caussols-ODAS MPS 2265
1998 09 16.95781 00 54 31.71 -04 44 11.7   557 – Ondrejov MPS 2265
1998 09 16.95979 00 54 31.71 -04 44 14.1 16.5 V 557 – Ondrejov MPS 2265
1998 09 16.98141 00 54 31.87 -04 44 36.0 17.0 V 910 – Caussols-ODAS MPS 2265
1998 09 17.00505 00 54 31.95 -04 45 03.1 17.0 V 910 – Caussols-ODAS MPS 2265
1998 09 17.52641 00 54 35.85 -04 54 43.2 15.8 R 426 – Woomera MPS 2265
1998 09 17.53611 00 54 35.87 -04 54 54.1 15.7 R 426 – Woomera MPS 2265
1998 09 17.54576 00 54 35.90 -04 55 05.4 15.8 R 426 – Woomera MPS 2265
1998 09 17.58785 00 54 35.82 -04 55 53.4 16.7 R 422 – Loomberah MPS 2265
1998 09 17.58865 00 54 35.82 -04 55 54.4 16.8 R 422 – Loomberah MPS 2265
1998 09 17.59069 00 54 35.82 -04 55 56.8 16.7 R 422 – Loomberah MPS 2265
1998 09 17.92721 00 54 37.82 -05 02 38.3   046 – Klet Observatory, Ceske Budejovice MPS 2265
1998 09 17.93433 00 54 37.87 -05 02 46.6   046 – Klet Observatory, Ceske Budejovice MPS 2265
1998 09 17.99540 00 54 38.06 -05 03 53.6 17.5 V 910 – Caussols-ODAS MPS 2265
1998 09 18.01858 00 54 38.09 -05 04 20.2 17.6 V 910 – Caussols-ODAS MPS 2265
1998 09 18.04151 00 54 38.12 -05 04 46.3 17.6 V 910 – Caussols-ODAS MPS 2265
1998 09 21.35132 00 54 47.87 -06 07 39.5 16.4 R 699 – Lowell Observatory-LONEOS MPS 2265
1998 09 21.38760 00 54 47.70 -06 08 20.6   699 – Lowell Observatory-LONEOS MPS 2265
1998 09 21.41293 00 54 47.63 -06 08 49.6   699 – Lowell Observatory-LONEOS MPS 2265
1998 09 27.34463 00 54 31.34 -07 58 37.6 16.2 R 699 – Lowell Observatory-LONEOS MPS 54270
1998 09 27.36949 00 54 31.07 -07 59 04.1   699 – Lowell Observatory-LONEOS MPS 54270
1998 09 27.39433 00 54 30.81 -07 59 31.1   699 – Lowell Observatory-LONEOS MPS 54270
1998 09 28.95240 00 54 21.37 -08 27 10.7 17.3 V 910 – Caussols-ODAS MPS 2265
1998 09 28.97608 00 54 21.10 -08 27 35.7 17.2 V 910 – Caussols-ODAS MPS 2265
1998 09 28.99936 00 54 20.85 -08 28 00.2 17.2 V 910 – Caussols-ODAS MPS 2265
1998 12 18.07298 01 27 52.59 -08 24 53.8 18.1 R 699 – Lowell Observatory-LONEOS MPS 56843
1998 12 18.10071 01 27 54.54 -08 24 33.0   699 – Lowell Observatory-LONEOS MPS 56843
1998 12 18.12620 01 27 56.36 -08 24 14.2   699 – Lowell Observatory-LONEOS MPS 56843
2002 06 12.29531 17 28 08.98 -03 01 33.4 18.6   704 – Lincoln Laboratory ETS, New Mexico MPS 60744
2002 06 12.30830 17 28 08.16 -03 01 32.7 18.6   704 – Lincoln Laboratory ETS, New Mexico MPS 60744
2002 06 12.32124 17 28 07.32 -03 01 31.0 18.8   704 – Lincoln Laboratory ETS, New Mexico MPS 60744
2002 06 12.33421 17 28 06.61 -03 01 30.0 18.9   704 – Lincoln Laboratory ETS, New Mexico MPS 60744
2002 06 12.34715 17 28 05.80 -03 01 28.5 19.1   704 – Lincoln Laboratory ETS, New Mexico MPS 60744
2002 07 09.24123 17 02 45.74 -03 36 09.4 19.3   704 – Lincoln Laboratory ETS, New Mexico MPS 60744
2002 07 09.25444 17 02 45.07 -03 36 14.1 19.0   704 – Lincoln Laboratory ETS, New Mexico MPS 60744
2002 07 09.26764 17 02 44.48 -03 36 16.5 19.4   704 – Lincoln Laboratory ETS, New Mexico MPS 60744
2002 07 09.28091 17 02 43.87 -03 36 20.5 19.3   704 – Lincoln Laboratory ETS, New Mexico MPS 60744
2002 07 09.29412 17 02 43.21 -03 36 23.3 19.2   704 – Lincoln Laboratory ETS, New Mexico MPS 60744
2004 01 17.28854 08 17 16.04 +07 49 40.6 19.9 V 691 – Steward Observatory, Kitt Peak-Spacewatch MPS 96837
2004 01 17.32228 08 17 14.00 +07 49 52.1 19.9 V 691 – Steward Observatory, Kitt Peak-Spacewatch MPS 96837
2004 01 17.38658 08 17 10.13 +07 50 14.3 20.5 V 691 – Steward Observatory, Kitt Peak-Spacewatch MPS 96837
2004 04 13.152784 07 53 07.46 +15 06 59.0   645 – Apache Point-Sloan Digital Sky Survey MPS 466583
2004 04 13.153613 07 53 07.49 +15 06 59.1   645 – Apache Point-Sloan Digital Sky Survey MPS 466583
2004 04 13.156101 07 53 07.60 +15 06 59.6   645 – Apache Point-Sloan Digital Sky Survey MPS 466583
2007 08 08.40384 03 52 31.90 +11 48 23.2 19.6   704 – Lincoln Laboratory ETS, New Mexico MPS 212469
2007 08 08.41537 03 52 33.54 +11 48 22.7 19.3   704 – Lincoln Laboratory ETS, New Mexico MPS 212469
2007 08 08.42689 03 52 35.03 +11 48 23.0 19.4   704 – Lincoln Laboratory ETS, New Mexico MPS 212469
2007 08 08.43852 03 52 36.70 +11 48 22.6 19.6   704 – Lincoln Laboratory ETS, New Mexico MPS 212469
2007 08 14.39860 04 05 56.55 +11 42 18.2 19.1   704 – Lincoln Laboratory ETS, New Mexico MPS 213009
2007 08 14.41048 04 05 58.04 +11 42 16.0 19.4   704 – Lincoln Laboratory ETS, New Mexico MPS 213009
2007 08 14.43438 04 06 01.08 +11 42 16.2 20.1   704 – Lincoln Laboratory ETS, New Mexico MPS 213009
2007 09 22.41159 05 15 01.65 +08 36 43.4 19.0   704 – Lincoln Laboratory ETS, New Mexico MPS 217708
2007 09 22.42393 05 15 02.60 +08 36 40.3 19.3   704 – Lincoln Laboratory ETS, New Mexico MPS 217708
2007 09 22.43628 05 15 03.45 +08 36 32.4 19.2   704 – Lincoln Laboratory ETS, New Mexico MPS 217708
